Location: ????????
(60.4333°N, 46.4710°E)
Time: 19:00:53
(UTC+00:00)

Radarsat Rocket - Pass Details

Date: 25 November 2020
Orbit: 933 x 1491 km, 100.6° (Epoch: 16 January)

Event Time Altitude Azimuth Distance (km) Brightness Sun altitude
Rises 13:14:29 0° 150° (SSE) 3,666 7.0 -8.0°
Reaches altitude 10° 13:16:49 10° 150° (SSE) 2,764 6.4 -8.3°
Maximum altitude 13:23:00 82° 63° (ENE) 1,093 4.2 -9.0°
Drops below altitude 10° 13:30:02 10° 338° (NNW) 3,119 6.6 -9.7°
Sets 13:32:48 0° 338° (NNW) 4,167 7.3 -10.1°
